TimeCST,TemperatureF,Dew PointF,Humidity,Sea Level PressureIn,VisibilityMPH,Wind Direction,Wind SpeedMPH,Gust SpeedMPH,PrecipitationIn,Events,Conditions,WindDirDegrees,DateUTC
12:00 AM,64.4,60.8,88,30.24,6.2,North,11.5,-,N/A,,Mostly Cloudy,360,2013-08-15 06:00:00
1:00 AM,64.4,62.6,94,30.21,6.2,North,11.5,-,N/A,,Scattered Clouds,360,2013-08-15 07:00:00
2:00 AM,64.4,60.8,88,30.21,6.2,North,13.8,-,N/A,,Mostly Cloudy,360,2013-08-15 08:00:00
3:00 AM,64.4,60.8,88,30.18,6.2,North,11.5,-,N/A,,Mostly Cloudy,360,2013-08-15 09:00:00
4:00 AM,62.6,60.8,94,30.18,6.2,NNE,6.9,-,N/A,,Partly Cloudy,20,2013-08-15 10:00:00
5:00 AM,62.6,60.8,94,30.21,6.2,NNE,9.2,-,N/A,,Partly Cloudy,20,2013-08-15 11:00:00
6:00 AM,62,61,94,29.88,25,NNE,6.9,,,,Scattered Clouds,20,2013-08-15 12:00:00
6:00 AM,62.6,60.8,94,30.21,6.2,NNE,6.9,-,N/A,,Scattered Clouds,20,2013-08-15 12:00:00
7:00 AM,64.4,60.8,88,30.24,-9999.0,NNE,6.9,-,N/A,,Clear,30,2013-08-15 13:00:00
8:00 AM,68.0,60.8,78,30.24,6.2,North,11.5,-,N/A,,Scattered Clouds,360,2013-08-15 14:00:00
9:00 AM,69.8,60.8,73,30.24,6.2,NE,9.2,-,N/A,,Scattered Clouds,40,2013-08-15 15:00:00
10:00 AM,71.6,60.8,69,30.24,6.2,NNE,9.2,-,N/A,,Mostly Cloudy,30,2013-08-15 16:00:00
11:00 AM,73.4,60.8,65,30.24,6.2,NNE,6.9,-,N/A,,Scattered Clouds,30,2013-08-15 17:00:00
12:00 PM,75.2,62.6,65,30.24,6.2,North,9.2,-,N/A,,Mostly Cloudy,360,2013-08-15 18:00:00
1:00 PM,77.0,62.6,61,30.21,6.2,NNE,11.5,-,N/A,,Mostly Cloudy,20,2013-08-15 19:00:00
2:00 PM,77.0,62.6,61,30.18,6.2,NNE,11.5,-,N/A,,Mostly Cloudy,30,2013-08-15 20:00:00
3:00 PM,77.0,62.6,61,30.15,6.2,NNE,11.5,-,N/A,,Scattered Clouds,20,2013-08-15 21:00:00
4:00 PM,77.0,60.8,57,30.15,6.2,SW,6.9,-,N/A,,Scattered Clouds,220,2013-08-15 22:00:00
5:00 PM,71.6,64.4,78,30.18,6.2,South,9.2,-,N/A,,Scattered Clouds,180,2013-08-15 23:00:00
6:00 PM,68.0,62.6,83,30.18,6.2,SW,6.9,-,N/A,,Overcast,220,2013-08-16 00:00:00
7:00 PM,68.0,64.4,88,30.21,6.2,Variable,3.5,-,N/A,,Light Drizzle,0,2013-08-16 01:00:00
8:00 PM,68.0,64.4,88,30.24,6.2,Calm,Calm,-,N/A,,Light Drizzle,0,2013-08-16 02:00:00
8:05 PM,-9999,-9999,N/A,-9999,3.1,South,4.6,-,N/A,,Mostly Cloudy,180,2013-08-16 02:05:00
8:30 PM,-9999,-9999,N/A,-9999,3.7,North,9.2,-,N/A,,Light Drizzle,360,2013-08-16 02:30:00
9:00 PM,68.0,66.2,94,30.27,5.0,North,6.9,-,N/A,,Light Drizzle,360,2013-08-16 03:00:00
9:20 PM,-9999,-9999,N/A,-9999,5.0,North,6.9,-,N/A,Thunderstorm,Thunderstorm,360,2013-08-16 03:20:00
10:00 PM,68.0,64.4,88,30.27,6.2,North,6.9,-,N/A,,Overcast,360,2013-08-16 04:00:00
10:30 PM,-9999,-9999,N/A,-9999,5.0,North,9.2,-,N/A,Rain,Light Rain,360,2013-08-16 04:30:00
11:00 PM,66.2,64.4,94,30.27,4.3,North,9.2,-,N/A,Rain,Rain,360,2013-08-16 05:00:00
11:25 PM,-9999,-9999,N/A,-9999,1.9,North,9.2,-,N/A,Rain,Heavy Rain,360,2013-08-16 05:25:00
11:45 PM,-9999,-9999,N/A,-9999,1.2,Variable,3.5,-,N/A,Rain,Heavy Rain,0,2013-08-16 05:45:00